Weather History for Metropolis, IL

Change the Weather History Date:

Friday, November 23, 2012

  Actual Average (KPAH) Record (KPAH)
Temperature  
Mean Temperature 44 °F 45 °F  
Max Temperature 56 °F 55 °F 70 °F (2003)
Min Temperature 32 °F 35 °F 15 °F (1950)
Degree Days  
Heating Degree Days 21 20  
Month to date heating degree days 358  
Since 1 July heating degree days 625  
Cooling Degree Days 0 0  
Month to date cooling degree days 0  
Year to date cooling degree days 1538  
Moisture  
Dew Point 34 °F    
Average Humidity 61    
Maximum Humidity 100    
Minimum Humidity 45    
Precipitation  
Precipitation 0.03 in 0.15 in 4.06 in (1951)
Month to date precipitation 3.19  
Year to date precipitation 43.38  
Snow  
Snow 0.00 in 0.00 in 1.30 in (1950)
Month to date snowfall 0.0  
Since 1 July snowfall 0.1  
Since 1 September snowfall 0.1  
Snow Depth -    
Sea Level Pressure  
Sea Level Pressure 30.21 in    
Wind  
Wind Speed 9 mph (NW)    
Max Wind Speed 21 mph    
Max Gust Speed 25 mph    
Visibility 10 miles    
Events      
T = Trace of Precipitation, MM = Missing Value Source: NWS Daily Summary

Daily Weather History Graph

Daily Weather History Graph

Search for Another Location

Airport:

Trip Planner

Search our weather history database for the weather conditions in past years. The results will help you decide how hot, cold, wet, or windy it might be!

Date:

Astronomy

Nov. 23, 2012 Rise Set
Actual Time 6:42 AM CST 4:40 PM CST
Civil Twilight 6:14 AM CST 5:08 PM CST
Nautical Twilight 5:42 AM CST 5:40 PM CST
Astronomical Twilight 5:11 AM CST 6:11 PM CST
Moon 1:50 PM CST (11/23) 2:06 AM CST (11/23)
Length of Visible Light 10h 53m
Length of Day
9h 57m
Waxing Gibbous, 80% of the Moon is Illuminated
Nov 23
Waxing Gibbous
Nov 28
Full
Dec 6
Last Quarter
Dec 13
New
Dec 19
First Quarter

Hourly Weather History & Observations

Time (CST) Temp. Windchill Dew Point Humidity Pressure Visibility Wind Dir Wind Speed Gust Speed Precip Events Conditions
12:15 AM 56.3 °F - 44.8 °F 65% 30.08 in 10.0 mi SW 8.1 mph - N/A   Overcast
12:35 AM 56.5 °F - 45.5 °F 67% 30.08 in 10.0 mi WSW 6.9 mph - N/A   Overcast
12:55 AM 56.3 °F - 46.4 °F 69% 30.07 in 10.0 mi WSW 5.8 mph - N/A   Overcast
1:15 AM 56.5 °F - 46.4 °F 69% 30.07 in 10.0 mi WSW 6.9 mph - N/A   Overcast
1:35 AM 55.6 °F - 47.3 °F 74% 30.07 in 10.0 mi WSW 4.6 mph - N/A   Overcast
1:55 AM 55.4 °F - 47.3 °F 74% 30.08 in 10.0 mi WSW 6.9 mph - N/A   Overcast
2:15 AM 53.8 °F - 48.6 °F 82% 30.09 in 7.0 mi West 6.9 mph - N/A   Overcast
2:35 AM 52.9 °F - 52.2 °F 97% 30.10 in 7.0 mi SW 9.2 mph - 0.03 in   Overcast
2:55 AM 53.1 °F - 53.1 °F 100% 30.10 in 10.0 mi WSW 6.9 mph - 0.03 in   Overcast
3:15 AM 53.4 °F - 53.4 °F 100% 30.10 in 10.0 mi West 9.2 mph - N/A   Overcast
3:35 AM 53.6 °F - 53.6 °F 100% 30.10 in 10.0 mi West 6.9 mph - N/A   Overcast
3:55 AM 53.6 °F - 53.6 °F 100% 30.11 in 10.0 mi WNW 5.8 mph - N/A   Overcast
4:15 AM 54.5 °F - 53.8 °F 97% 30.11 in 10.0 mi NW 9.2 mph - N/A   Overcast
4:35 AM 54.7 °F - 48.6 °F 80% 30.12 in 10.0 mi NW 9.2 mph 20.7 mph N/A   Overcast
4:55 AM 53.8 °F - 43.7 °F 69% 30.13 in 10.0 mi NNW 13.8 mph - N/A   Overcast
5:15 AM 52.5 °F - 42.6 °F 69% 30.14 in 10.0 mi NW 13.8 mph 19.6 mph N/A   Overcast
5:35 AM 50.5 °F - 38.8 °F 64% 30.15 in 10.0 mi NNW 9.2 mph 16.1 mph N/A   Mostly Cloudy
5:55 AM 49.3 °F - 37.8 °F 65% 30.16 in 10.0 mi NW 6.9 mph - N/A   Scattered Clouds
6:15 AM 48.0 °F - 37.9 °F 68% 30.17 in 10.0 mi NW 6.9 mph - N/A   Clear
6:35 AM 46.8 °F - 37.6 °F 70% 30.18 in 10.0 mi WNW 6.9 mph - N/A   Clear
6:55 AM 46.9 °F - 35.6 °F 65% 30.19 in 10.0 mi NW 5.8 mph - N/A   Clear
7:15 AM 45.7 °F 42.0 °F 35.2 °F 67% 30.20 in 10.0 mi NW 6.9 mph - N/A   Clear
7:35 AM 46.2 °F 44.1 °F 35.8 °F 67% 30.20 in 10.0 mi NW 4.6 mph - N/A   Clear
7:55 AM 48.0 °F - 36.0 °F 63% 30.21 in 10.0 mi NW 3.5 mph - N/A   Clear
8:15 AM 48.7 °F - 37.2 °F 64% 30.22 in 10.0 mi WNW 8.1 mph - N/A   Clear
8:35 AM 49.1 °F - 36.5 °F 62% 30.22 in 10.0 mi WNW 9.2 mph 16.1 mph N/A   Clear
8:55 AM 49.3 °F - 34.3 °F 56% 30.22 in 10.0 mi NW 9.2 mph - N/A   Clear
9:15 AM 50.0 °F - 32.9 °F 52% 30.22 in 10.0 mi NW 8.1 mph - N/A   Clear
9:35 AM 50.9 °F - 33.4 °F 51% 30.23 in 10.0 mi WNW 9.2 mph - N/A   Clear
9:55 AM 51.4 °F - 32.2 °F 48% 30.22 in 10.0 mi NW 10.4 mph 17.3 mph N/A   Clear
10:15 AM 52.2 °F - 31.8 °F 46% 30.22 in 10.0 mi NW 11.5 mph 19.6 mph N/A   Clear
10:35 AM 52.5 °F - 32.4 °F 46% 30.22 in 10.0 mi WNW 15.0 mph 19.6 mph N/A   Clear
10:55 AM 52.7 °F - 32.2 °F 46% 30.21 in 10.0 mi WNW 11.5 mph 21.9 mph N/A   Clear
11:15 AM 53.1 °F - 32.4 °F 45% 30.21 in 10.0 mi NW 15.0 mph 19.6 mph N/A   Clear
11:35 AM 53.6 °F - 32.5 °F 45% 30.20 in 10.0 mi NW 11.5 mph 20.7 mph N/A   Scattered Clouds
11:55 AM 53.1 °F - 33.6 °F 48% 30.20 in 10.0 mi NNW 17.3 mph 24.2 mph N/A   Scattered Clouds
12:15 PM 52.0 °F - 32.5 °F 48% 30.20 in 10.0 mi NW 20.7 mph 25.3 mph N/A   Scattered Clouds
12:35 PM 51.8 °F - 32.0 °F 47% 30.20 in 10.0 mi West 13.8 mph 21.9 mph N/A   Clear
12:55 PM 52.2 °F - 33.3 °F 49% 30.20 in 10.0 mi WNW 17.3 mph 20.7 mph N/A   Scattered Clouds
1:15 PM 49.6 °F - 32.7 °F 52% 30.21 in 10.0 mi WNW 11.5 mph 20.7 mph N/A   Mostly Cloudy
1:35 PM 49.5 °F - 33.3 °F 54% 30.21 in 10.0 mi NW 15.0 mph 21.9 mph N/A   Mostly Cloudy
1:55 PM 49.8 °F - 32.7 °F 52% 30.22 in 10.0 mi WNW 12.7 mph 19.6 mph N/A   Scattered Clouds
2:15 PM 49.6 °F - 31.3 °F 49% 30.22 in 10.0 mi WNW 15.0 mph 20.7 mph N/A   Scattered Clouds
2:35 PM 49.3 °F - 31.3 °F 50% 30.22 in 10.0 mi WNW 11.5 mph 17.3 mph N/A   Clear
2:55 PM 49.1 °F - 30.2 °F 48% 30.23 in 10.0 mi WNW 9.2 mph 19.6 mph N/A   Clear
3:15 PM 48.6 °F - 29.1 °F 47% 30.23 in 10.0 mi NW 11.5 mph 17.3 mph N/A   Clear
3:35 PM 48.2 °F - 28.4 °F 46% 30.23 in 10.0 mi WNW 12.7 mph 17.3 mph N/A   Clear
3:55 PM 47.5 °F - 28.2 °F 47% 30.24 in 10.0 mi NW 6.9 mph 11.5 mph N/A   Clear
4:15 PM 46.8 °F - 27.5 °F 47% 30.24 in 10.0 mi WNW 9.2 mph - N/A   Clear
4:35 PM 45.5 °F 41.3 °F 27.7 °F 50% 30.25 in 10.0 mi WNW 8.1 mph - N/A   Clear
4:55 PM 44.2 °F 39.7 °F 28.0 °F 53% 30.25 in 10.0 mi WNW 8.1 mph - N/A   Clear
5:15 PM 44.1 °F 40.1 °F 27.5 °F 52% 30.26 in 10.0 mi NW 6.9 mph - N/A   Clear
5:35 PM 43.7 °F 39.7 °F 27.1 °F 52% 30.26 in 10.0 mi NW 6.9 mph - N/A   Clear
5:55 PM 42.4 °F 38.1 °F 27.3 °F 55% 30.27 in 10.0 mi WNW 6.9 mph - N/A   Clear
6:15 PM 42.3 °F 37.3 °F 27.0 °F 55% 30.27 in 10.0 mi NW 8.1 mph - N/A   Clear
6:35 PM 41.4 °F 37.6 °F 26.4 °F 55% 30.28 in 10.0 mi NNW 5.8 mph - N/A   Clear
6:55 PM 40.3 °F 34.9 °F 23.9 °F 52% 30.29 in 10.0 mi NNW 8.1 mph - N/A   Clear
7:15 PM 40.1 °F 34.7 °F 23.0 °F 51% 30.29 in 10.0 mi NNW 8.1 mph - N/A   Clear
7:35 PM 39.4 °F 32.7 °F 22.1 °F 50% 30.30 in 10.0 mi NNW 10.4 mph 16.1 mph N/A   Clear
7:55 PM 38.8 °F 32.1 °F 21.7 °F 50% 30.31 in 10.0 mi NNW 10.4 mph - N/A   Clear
8:15 PM 38.3 °F 30.9 °F 21.2 °F 50% 30.31 in 10.0 mi NNW 11.5 mph - N/A   Clear
8:35 PM 37.8 °F 31.8 °F 21.0 °F 51% 30.30 in 10.0 mi NW 8.1 mph - N/A   Clear
8:55 PM 36.9 °F 30.7 °F 21.6 °F 54% 30.31 in 10.0 mi NW 8.1 mph - N/A   Clear
9:15 PM 37.0 °F 31.0 °F 21.4 °F 53% 30.30 in 10.0 mi NW 8.1 mph - N/A   Clear
9:35 PM 35.8 °F 29.4 °F 21.9 °F 57% 30.31 in 10.0 mi NW 8.1 mph - N/A   Clear
9:55 PM 35.6 °F 28.6 °F 21.7 °F 57% 30.31 in 10.0 mi NW 9.2 mph - N/A   Clear
10:15 PM 35.1 °F 31.0 °F 21.7 °F 58% 30.32 in 10.0 mi NW 4.6 mph - N/A   Clear
10:35 PM 34.0 °F 28.8 °F 22.1 °F 62% 30.32 in 10.0 mi NW 5.8 mph - N/A   Clear
10:55 PM 33.3 °F 30.2 °F 22.1 °F 64% 30.32 in 10.0 mi NW 3.5 mph - N/A   Clear
11:15 PM 33.4 °F 27.3 °F 21.9 °F 63% 30.32 in 10.0 mi NNW 6.9 mph - N/A   Clear
11:35 PM 32.9 °F 29.8 °F 21.6 °F 63% 30.31 in 10.0 mi North 3.5 mph - N/A   Clear
11:55 PM 32.0 °F 28.7 °F 21.9 °F 66% 30.31 in 10.0 mi North 3.5 mph - N/A   Clear